,,,PA_Meas_PMT16A,,PR_Meas_QMR101_102,,RH_Meas_QMH101,,SR_Meas_QMS101,,TA_Meas_QMH101,,GenWind,,GenWind,
date,time,status,PA,status,PR,status,RH,status,SR,status,TA,status,DirAvg,status,SpdAvg,
2011-07-13, 00:00:05,VALID,1003.58,VALID,0,INVALID,163.617,VALID,0,VALID,25.8434,VALID,28,VALID,0,
2011-07-13, 00:01:05,VALID,1003.57,VALID,0,INVALID,163.601,VALID,0,VALID,25.8044,VALID,28,VALID,0,
2011-07-13, 00:02:04,VALID,1003.58,VALID,0,INVALID,163.617,VALID,0,VALID,25.785,VALID,28,VALID,0,
2011-07-13, 00:03:04,VALID,1003.58,VALID,0,INVALID,163.617,VALID,0,VALID,25.785,VALID,15,VALID,0,
2011-07-13, 00:04:04,VALID,1003.6,VALID,0,INVALID,163.609,VALID,0,VALID,25.8239,VALID,79,VALID,0,
2011-07-13, 00:05:04,VALID,1003.58,VALID,0,INVALID,163.624,VALID,0,VALID,25.8044,VALID,19,VALID,0,
2011-07-13, 00:06:04,VALID,1003.58,VALID,0,INVALID,163.617,VALID,0,VALID,25.8064,VALID,14,VALID,0,
2011-07-13, 00:07:04,VALID,1003.57,VALID,0,INVALID,163.624,VALID,0,VALID,25.7655,VALID,14,VALID,0,
2011-07-13, 00:08:04,VALID,1003.57,VALID,0,INVALID,163.632,VALID,0,VALID,25.746,VALID,14,VALID,0,
2011-07-13, 00:09:04,VALID,1003.57,VALID,0,INVALID,163.624,VALID,0,VALID,25.8259,VALID,2,VALID,0,
2011-07-13, 00:10:04,VALID,1003.59,VALID,0,INVALID,163.617,VALID,0,VALID,25.9038,VALID,25,VALID,0,
2011-07-13, 00:11:04,VALID,1003.59,VALID,0,INVALID,163.601,VALID,0,VALID,25.9018,VALID,25,VALID,0,
2011-07-13, 00:12:04,VALID,1003.57,VALID,0,INVALID,163.617,VALID,0,VALID,25.9018,VALID,25,VALID,0,
2011-07-13, 00:13:04,VALID,1003.56,VALID,0,INVALID,163.578,VALID,0,VALID,25.9408,VALID,336,VALID,0,
2011-07-13, 00:14:04,VALID,1003.52,VALID,0,INVALID,163.594,VALID,0,VALID,25.9797,VALID,358,VALID,0,
2011-07-13, 00:15:04,VALID,1003.51,VALID,0,INVALID,163.617,VALID,0.100563,VALID,25.9797,VALID,358,VALID,0,
2011-07-13, 00:16:04,VALID,1003.51,VALID,0,INVALID,163.586,VALID,0,VALID,25.9602,VALID,358,VALID,0,
2011-07-13, 00:17:04,VALID,1003.5,VALID,0,INVALID,163.594,VALID,0,VALID,25.9622,VALID,6,VALID,0,
2011-07-13, 00:18:04,VALID,1003.48,VALID,0,INVALID,163.617,VALID,0,VALID,25.9622,VALID,23,VALID,0,
2011-07-13, 00:19:04,VALID,1003.44,VALID,0,INVALID,163.632,VALID,0,VALID,25.9427,VALID,14,VALID,0,
2011-07-13, 00:20:04,VALID,1003.45,VALID,0,INVALID,163.601,VALID,0,VALID,25.9622,VALID,8,VALID,0,
2011-07-13, 00:21:04,VALID,1003.48,VALID,0,INVALID,163.601,VALID,0,VALID,25.9213,VALID,6,VALID,0,
2011-07-13, 00:22:04,VALID,1003.41,VALID,0,INVALID,163.624,VALID,0,VALID,25.8823,VALID,4,VALID,0,
2011-07-13, 00:23:04,VALID,1003.38,VALID,0,INVALID,163.601,VALID,0,VALID,25.8823,VALID,14,VALID,0,
2011-07-13, 00:24:04,VALID,1003.38,VALID,0,INVALID,163.617,VALID,0,VALID,25.9408,VALID,31,VALID,0,
2011-07-13, 00:25:04,VALID,1003.39,VALID,0,INVALID,163.601,VALID,0,VALID,25.9408,VALID,31,VALID,0,
2011-07-13, 00:26:04,VALID,1003.38,VALID,0,INVALID,163.601,VALID,0,VALID,25.9213,VALID,80,VALID,0,
2011-07-13, 00:27:04,VALID,1003.38,VALID,0,INVALID,163.632,VALID,0,VALID,25.9038,VALID,10,VALID,0,
2011-07-13, 00:28:04,VALID,1003.38,VALID,0,INVALID,163.632,VALID,0,VALID,25.8823,VALID,69,VALID,0,
2011-07-13, 00:29:04,VALID,1003.37,VALID,0,INVALID,163.594,VALID,0,VALID,25.8823,VALID,8,VALID,0,
2011-07-13, 00:30:04,VALID,1003.39,VALID,0,INVALID,163.632,VALID,0,VALID,25.8843,VALID,27,VALID,0,
2011-07-13, 00:31:04,VALID,1003.36,VALID,0,INVALID,163.586,VALID,0,VALID,25.9018,VALID,25,VALID,0,
2011-07-13, 00:32:04,VALID,1003.36,VALID,0,INVALID,163.586,VALID,0,VALID,25.9232,VALID,8,VALID,0,
2011-07-13, 00:33:04,VALID,1003.34,VALID,0,INVALID,163.594,VALID,0,VALID,25.9018,VALID,22,VALID,0,
2011-07-13, 00:34:04,VALID,1003.35,VALID,0,INVALID,163.647,VALID,0,VALID,25.9427,VALID,23,VALID,0,
2011-07-13, 00:35:04,VALID,1003.34,VALID,0,INVALID,163.617,VALID,0,VALID,25.9622,VALID,49,VALID,0,
2011-07-13, 00:36:04,VALID,1003.35,VALID,0,INVALID,163.617,VALID,0,VALID,25.9018,VALID,74,VALID,0,
2011-07-13, 00:37:04,VALID,1003.36,VALID,0,INVALID,163.624,VALID,0,VALID,25.8823,VALID,74,VALID,0,
2011-07-13, 00:38:04,VALID,1003.34,VALID,0,INVALID,163.609,VALID,0,VALID,25.9038,VALID,60,VALID,0,
2011-07-13, 00:39:04,VALID,1003.33,VALID,0,INVALID,163.609,VALID,0,VALID,25.8629,VALID,60,VALID,0,
2011-07-13, 00:40:04,VALID,1003.32,VALID,0,INVALID,163.609,VALID,0,VALID,25.8434,VALID,1,VALID,0,
2011-07-13, 00:41:04,VALID,1003.32,VALID,0,INVALID,163.609,VALID,0.100563,VALID,25.8453,VALID,22,VALID,0,
2011-07-13, 00:42:04,VALID,1003.28,VALID,0,INVALID,163.609,VALID,0,VALID,25.8064,VALID,33,VALID,0,
2011-07-13, 00:43:04,VALID,1003.28,VALID,0,INVALID,163.632,VALID,0,VALID,25.8064,VALID,12,VALID,0,
2011-07-13, 00:44:04,VALID,1003.3,VALID,0,INVALID,163.609,VALID,0,VALID,25.785,VALID,13,VALID,0,
2011-07-13, 00:45:04,VALID,1003.32,VALID,0,INVALID,163.639,VALID,0,VALID,25.8239,VALID,48,VALID,0,
2011-07-13, 00:46:04,VALID,1003.37,VALID,0,INVALID,163.609,VALID,0,VALID,25.8239,VALID,62,VALID,0,
2011-07-13, 00:47:04,VALID,1003.36,VALID,0,INVALID,163.594,VALID,0,VALID,25.785,VALID,62,VALID,0,
2011-07-13, 00:48:04,VALID,1003.38,VALID,0,INVALID,163.609,VALID,0,VALID,25.7869,VALID,27,VALID,0,
2011-07-13, 00:49:04,VALID,1003.37,VALID,0,INVALID,163.609,VALID,0,VALID,25.746,VALID,37,VALID,0,
2011-07-13, 00:50:04,VALID,1003.38,VALID,0,INVALID,163.617,VALID,0,VALID,25.746,VALID,59,VALID,0,
2011-07-13, 00:51:04,VALID,1003.38,VALID,0,INVALID,163.632,VALID,0,VALID,25.7265,VALID,43,VALID,0,
2011-07-13, 00:52:04,VALID,1003.37,VALID,0,INVALID,163.624,VALID,0,VALID,25.7071,VALID,18,VALID,0,
2011-07-13, 00:53:04,VALID,1003.39,VALID,0,INVALID,163.639,VALID,0,VALID,25.7071,VALID,24,VALID,0,
2011-07-13, 00:54:04,VALID,1003.37,VALID,0,INVALID,163.632,VALID,0,VALID,25.7071,VALID,44,VALID,0,
2011-07-13, 00:55:04,VALID,1003.35,VALID,0,INVALID,163.632,VALID,0,VALID,25.746,VALID,19,VALID,0,
2011-07-13, 00:56:04,VALID,1003.36,VALID,0,INVALID,163.617,VALID,0,VALID,25.748,VALID,46,VALID,0,
2011-07-13, 00:57:04,VALID,1003.33,VALID,0,INVALID,163.655,VALID,0,VALID,25.746,VALID,60,VALID,0,
2011-07-13, 00:58:04,VALID,1003.35,VALID,0,INVALID,163.617,VALID,0,VALID,25.7674,VALID,42,VALID,0,
2011-07-13, 00:59:04,VALID,1003.32,VALID,0,INVALID,163.639,VALID,0,VALID,25.7674,VALID,40,VALID,0,
2011-07-13, 01:00:04,VALID,1003.29,VALID,0,INVALID,163.67,VALID,0,VALID,25.7265,VALID,29,VALID,0,
2011-07-13, 01:01:04,VALID,1003.3,VALID,0,INVALID,163.632,VALID,0,VALID,25.746,VALID,51,VALID,0,
2011-07-13, 01:02:04,VALID,1003.31,VALID,0,INVALID,163.639,VALID,0,VALID,25.7265,VALID,73,VALID,0,
2011-07-13, 01:03:04,VALID,1003.32,VALID,0,INVALID,163.647,VALID,0,VALID,25.746,VALID,35,VALID,0,
2011-07-13, 01:04:04,VALID,1003.29,VALID,0,INVALID,163.639,VALID,0,VALID,25.7071,VALID,37,VALID,0,
2011-07-13, 01:05:04,VALID,1003.3,VALID,0,INVALID,163.647,VALID,0,VALID,25.6876,VALID,37,VALID,0,
2011-07-13, 01:06:04,VALID,1003.27,VALID,0,INVALID,163.609,VALID,0,VALID,25.7285,VALID,7,VALID,0,
2011-07-13, 01:07:04,VALID,1003.24,VALID,0,INVALID,163.617,VALID,0,VALID,25.7285,VALID,101,VALID,0,
2011-07-13, 01:08:04,VALID,1003.26,VALID,0,INVALID,163.624,VALID,0,VALID,25.709,VALID,28,VALID,0,
2011-07-13, 01:09:04,VALID,1003.21,VALID,0,INVALID,163.662,VALID,0,VALID,25.6681,VALID,61,VALID,0,
2011-07-13, 01:10:04,VALID,1003.21,VALID,0,INVALID,163.632,VALID,0,VALID,25.6681,VALID,31,VALID,0,
2011-07-13, 01:11:04,VALID,1003.22,VALID,0,INVALID,163.624,VALID,0,VALID,25.6876,VALID,30,VALID,0,
2011-07-13, 01:12:04,VALID,1003.21,VALID,0,INVALID,163.617,VALID,0,VALID,25.748,VALID,28,VALID,0,
2011-07-13, 01:13:04,VALID,1003.22,VALID,0,INVALID,163.639,VALID,0,VALID,25.746,VALID,27,VALID,0,
2011-07-13, 01:14:04,VALID,1003.23,VALID,0,INVALID,163.632,VALID,0,VALID,25.7674,VALID,3,VALID,0,
2011-07-13, 01:15:04,VALID,1003.19,VALID,0,INVALID,163.647,VALID,0,VALID,25.7246,VALID,12,VALID,0,
2011-07-13, 01:16:04,VALID,1003.19,VALID,0,INVALID,163.617,VALID,0,VALID,25.7265,VALID,103,VALID,0,
2011-07-13, 01:17:04,VALID,1003.21,VALID,0,INVALID,163.632,VALID,0,VALID,25.7071,VALID,48,VALID,0,
2011-07-13, 01:18:04,VALID,1003.18,VALID,0,INVALID,163.624,VALID,0,VALID,25.709,VALID,47,VALID,0,
2011-07-13, 01:19:04,VALID,1003.18,VALID,0,INVALID,163.632,VALID,0,VALID,25.6876,VALID,85,VALID,0,
2011-07-13, 01:20:04,VALID,1003.19,VALID,0,INVALID,163.647,VALID,0,VALID,25.6856,VALID,25,VALID,0,
2011-07-13, 01:21:04,VALID,1003.2,VALID,0,INVALID,163.624,VALID,0,VALID,25.7655,VALID,26,VALID,0,
2011-07-13, 01:22:04,VALID,1003.22,VALID,0,INVALID,163.609,VALID,0,VALID,25.7655,VALID,28,VALID,0,
2011-07-13, 01:23:04,VALID,1003.18,VALID,0,INVALID,163.624,VALID,0,VALID,25.8453,VALID,23,VALID,0,
2011-07-13, 01:24:04,VALID,1003.19,VALID,0,INVALID,163.601,VALID,0,VALID,25.8629,VALID,20,VALID,0,
2011-07-13, 01:25:04,VALID,1003.21,VALID,0,INVALID,163.632,VALID,0,VALID,25.8648,VALID,18,VALID,0,
2011-07-13, 01:26:04,VALID,1003.24,VALID,0,INVALID,163.624,VALID,0,VALID,25.8843,VALID,10,VALID,0,
2011-07-13, 01:27:04,VALID,1003.22,VALID,0,INVALID,163.617,VALID,0,VALID,25.9018,VALID,16,VALID,0,
2011-07-13, 01:28:04,VALID,1003.21,VALID,0,INVALID,163.601,VALID,0,VALID,25.9622,VALID,10,VALID,0,
2011-07-13, 01:29:04,VALID,1003.21,VALID,0,INVALID,163.624,VALID,0,VALID,25.9622,VALID,19,VALID,0,
2011-07-13, 01:30:04,VALID,1003.17,VALID,0,INVALID,163.609,VALID,0,VALID,25.9622,VALID,27,VALID,0,
2011-07-13, 01:31:04,VALID,1003.21,VALID,0,INVALID,163.586,VALID,0,VALID,25.9622,VALID,28,VALID,0,
2011-07-13, 01:32:04,VALID,1003.16,VALID,0,INVALID,163.609,VALID,0,VALID,25.9817,VALID,51,VALID,0,
2011-07-13, 01:33:04,VALID,1003.17,VALID,0,INVALID,163.617,VALID,0,VALID,25.9992,VALID,15,VALID,0,
2011-07-13, 01:34:04,VALID,1003.18,VALID,0,INVALID,163.601,VALID,0,VALID,25.9817,VALID,50,VALID,0,
2011-07-13, 01:35:04,VALID,1003.14,VALID,0,INVALID,163.601,VALID,0,VALID,26.0012,VALID,82,VALID,0,
2011-07-13, 01:36:04,VALID,1003.13,VALID,0,INVALID,163.594,VALID,0,VALID,25.9992,VALID,28,VALID,0,
2011-07-13, 01:37:04,VALID,1003.1,VALID,0,INVALID,163.594,VALID,0,VALID,26.0381,VALID,51,VALID,0,
2011-07-13, 01:38:04,VALID,1003.09,VALID,0,INVALID,163.594,VALID,0,VALID,26.0596,VALID,31,VALID,0,
2011-07-13, 01:39:04,VALID,1003.09,VALID,0,INVALID,163.609,VALID,0,VALID,26.0187,VALID,31,VALID,0,
2011-07-13, 01:40:04,VALID,1003.09,VALID,0,INVALID,163.601,VALID,0,VALID,26.0012,VALID,69,VALID,0,
2011-07-13, 01:41:04,VALID,1003.08,VALID,0,INVALID,163.609,VALID,0.100563,VALID,26.0012,VALID,28,VALID,0,
2011-07-13, 01:42:04,VALID,1003.06,VALID,0,INVALID,163.617,VALID,0,VALID,26.0401,VALID,10,VALID,0,
2011-07-13, 01:43:04,VALID,1003.07,VALID,0,INVALID,163.609,VALID,0,VALID,26.0401,VALID,15,VALID,0,
2011-07-13, 01:44:04,VALID,1003.06,VALID,0,INVALID,163.586,VALID,0,VALID,26.0401,VALID,17,VALID,0,
2011-07-13, 01:45:04,VALID,1003.05,VALID,0,INVALID,163.594,VALID,0,VALID,26.0985,VALID,19,VALID,0,
2011-07-13, 01:46:04,VALID,1003.07,VALID,0,INVALID,158.711,VALID,0,VALID,26.2154,VALID,61,VALID,0,
2011-07-13, 01:47:04,VALID,1003.02,VALID,0,INVALID,142.797,VALID,0,VALID,26.2544,VALID,81,VALID,0,
2011-07-13, 01:48:04,VALID,1003.01,VALID,0,INVALID,139.197,VALID,0,VALID,26.2154,VALID,12,VALID,0,
2011-07-13, 01:49:04,VALID,1002.99,VALID,0,INVALID,138.167,VALID,0,VALID,26.2349,VALID,51,VALID,0,
2011-07-13, 01:50:04,VALID,1002.97,VALID,0,INVALID,133.307,VALID,0,VALID,26.2349,VALID,95,VALID,0,
2011-07-13, 01:51:04,VALID,1003.04,VALID,0,INVALID,131.88,VALID,0,VALID,26.2154,VALID,65,VALID,0,
2011-07-13, 01:52:04,VALID,1003.02,VALID,0,INVALID,129.454,VALID,0,VALID,26.2329,VALID,33,VALID,0,
2011-07-13, 01:53:04,VALID,1002.97,VALID,0,INVALID,123.992,VALID,0,VALID,26.2933,VALID,47,VALID,0,
2011-07-13, 01:54:04,VALID,1002.99,VALID,0,INVALID,121.978,VALID,0,VALID,26.2719,VALID,25,VALID,0,
2011-07-13, 01:55:04,VALID,1003,VALID,0,INVALID,122.276,VALID,0,VALID,26.2719,VALID,43,VALID,0,
2011-07-13, 01:56:04,VALID,1002.97,VALID,0,INVALID,116.531,VALID,0,VALID,26.3323,VALID,55,VALID,0,
2011-07-13, 01:57:04,VALID,1003,VALID,0,INVALID,115.455,VALID,0,VALID,26.3303,VALID,46,VALID,0,
2011-07-13, 01:58:04,VALID,1002.99,VALID,0,INVALID,117.294,VALID,0,VALID,26.3323,VALID,28,VALID,0,
2011-07-13, 01:59:04,VALID,1002.99,VALID,0,INVALID,118.538,VALID,0,VALID,26.2739,VALID,14,VALID,0,
2011-07-13, 02:00:04,VALID,1003,VALID,0,INVALID,120.948,VALID,0,VALID,26.2349,VALID,44,VALID,0,
2011-07-13, 02:01:04,VALID,1003.01,VALID,0,INVALID,122.665,VALID,0,VALID,26.194,VALID,31,VALID,0,
2011-07-13, 02:02:04,VALID,1003.01,VALID,0,INVALID,124.633,VALID,0,VALID,26.1959,VALID,29,VALID,0,
2011-07-13, 02:03:04,VALID,1002.97,VALID,0,INVALID,122.07,VALID,0,VALID,26.1959,VALID,17,VALID,0,
2011-07-13, 02:04:04,VALID,1003,VALID,0,INVALID,117.561,VALID,0,VALID,26.2739,VALID,57,VALID,0,
2011-07-13, 02:05:04,VALID,1002.97,VALID,0,INVALID,114.876,VALID,0,VALID,26.2719,VALID,352,VALID,0,
2011-07-13, 02:06:04,VALID,1002.97,VALID,0,INVALID,113.785,VALID,0,VALID,26.3323,VALID,27,VALID,0,
2011-07-13, 02:07:04,VALID,1002.94,VALID,0,INVALID,113.068,VALID,0,VALID,26.2913,VALID,354,VALID,0,
2011-07-13, 02:08:04,VALID,1002.92,VALID,0,INVALID,111.649,VALID,0,VALID,26.3108,VALID,50,VALID,0,
2011-07-13, 02:09:04,VALID,1002.95,VALID,0,INVALID,111.481,VALID,0,VALID,26.3303,VALID,22,VALID,0,
2011-07-13, 02:10:04,VALID,1002.95,VALID,0,INVALID,111.588,VALID,0,VALID,26.3303,VALID,19,VALID,0,
2011-07-13, 02:11:04,VALID,1002.95,VALID,0,INVALID,111.092,VALID,0,VALID,26.2913,VALID,22,VALID,0,
2011-07-13, 02:12:04,VALID,1002.98,VALID,0,INVALID,112.167,VALID,0,VALID,26.2913,VALID,31,VALID,0,
2011-07-13, 02:13:04,VALID,1002.99,VALID,0,INVALID,112.244,VALID,0,VALID,26.2739,VALID,69,VALID,0,
2011-07-13, 02:14:04,VALID,1003.02,VALID,0,INVALID,111.626,VALID,0,VALID,26.2913,VALID,51,VALID,0,
2011-07-13, 02:15:04,VALID,1003.04,VALID,0,INVALID,111.687,VALID,0,VALID,26.2913,VALID,40,VALID,0,
2011-07-13, 02:16:04,VALID,1003.03,VALID,0,INVALID,111.565,VALID,0,VALID,26.3128,VALID,21,VALID,0,
2011-07-13, 02:17:04,VALID,1003.04,VALID,0,INVALID,112.022,VALID,0,VALID,26.2913,VALID,64,VALID,0,
2011-07-13, 02:18:04,VALID,1003.01,VALID,0,INVALID,111.199,VALID,0,VALID,26.3148,VALID,10,VALID,0,
2011-07-13, 02:19:04,VALID,1003.02,VALID,0,INVALID,109.337,VALID,0,VALID,26.3907,VALID,11,VALID,0,
2011-07-13, 02:20:04,VALID,1002.99,VALID,0,VALID,104,VALID,0,VALID,26.4082,VALID,21,VALID,0,
2011-07-13, 02:21:04,VALID,1002.97,VALID,0,VALID,104,VALID,0,VALID,26.4492,VALID,29,VALID,0,
2011-07-13, 02:22:04,VALID,1002.95,VALID,0,VALID,104,VALID,0,VALID,26.4667,VALID,7,VALID,0,
2011-07-13, 02:23:04,VALID,1002.93,VALID,0,VALID,104,VALID,0,VALID,26.5271,VALID,4,VALID,0,
2011-07-13, 02:24:04,VALID,1002.93,VALID,0,VALID,104,VALID,0,VALID,26.6245,VALID,16,VALID,0,
2011-07-13, 02:25:04,VALID,1002.93,VALID,0,VALID,104,VALID,0,VALID,26.644,VALID,28,VALID,0,
2011-07-13, 02:26:04,VALID,1002.9,VALID,0,VALID,104,VALID,0,VALID,26.605,VALID,15,VALID,0,
2011-07-13, 02:27:04,VALID,1002.96,VALID,0,VALID,104,VALID,0,VALID,26.644,VALID,30,VALID,0,
2011-07-13, 02:28:04,VALID,1002.97,VALID,0,VALID,104,VALID,0,VALID,26.6635,VALID,78,VALID,0,
2011-07-13, 02:29:04,VALID,1002.93,VALID,0,VALID,104,VALID,0,VALID,26.6245,VALID,63,VALID,0,
2011-07-13, 02:30:04,VALID,1002.95,VALID,0,VALID,104,VALID,0,VALID,26.605,VALID,1,VALID,0,
2011-07-13, 02:31:04,VALID,1002.98,VALID,0,VALID,104,VALID,0,VALID,26.5876,VALID,46,VALID,0,
2011-07-13, 02:32:04,VALID,1003,VALID,0,VALID,104,VALID,0,VALID,26.5466,VALID,78,VALID,0,
2011-07-13, 02:33:04,VALID,1002.95,VALID,0,VALID,104,VALID,0,VALID,26.5466,VALID,74,VALID,0,
2011-07-13, 02:34:04,VALID,1002.92,VALID,0,VALID,104,VALID,0,VALID,26.5271,VALID,45,VALID,0,
2011-07-13, 02:35:04,VALID,1002.91,VALID,0,VALID,104,VALID,0,VALID,26.4881,VALID,62,VALID,0,
2011-07-13, 02:36:04,VALID,1002.92,VALID,0,VALID,104,VALID,0,VALID,26.4492,VALID,53,VALID,0,
2011-07-13, 02:37:04,VALID,1002.93,VALID,0,VALID,104,VALID,0,VALID,26.3907,VALID,84,VALID,0,
2011-07-13, 02:38:04,VALID,1002.95,VALID,0,VALID,104,VALID,0,VALID,26.3713,VALID,46,VALID,0,
2011-07-13, 02:39:04,VALID,1002.93,VALID,0,VALID,104,VALID,0,VALID,26.3498,VALID,66,VALID,0,
2011-07-13, 02:40:04,VALID,1002.92,VALID,0,VALID,104,VALID,0,VALID,26.3713,VALID,67,VALID,0,
2011-07-13, 02:41:04,VALID,1002.88,VALID,0,VALID,104,VALID,0,VALID,26.3518,VALID,43,VALID,0,
2011-07-13, 02:42:04,VALID,1002.89,VALID,0,VALID,104,VALID,0,VALID,26.3518,VALID,84,VALID,0,
2011-07-13, 02:43:04,VALID,1002.86,VALID,0,VALID,104,VALID,0,VALID,26.3498,VALID,60,VALID,0,
2011-07-13, 02:44:04,VALID,1002.84,VALID,0,VALID,104,VALID,0,VALID,26.3713,VALID,44,VALID,0,
2011-07-13, 02:45:04,VALID,1002.78,VALID,0,VALID,104,VALID,0,VALID,26.3693,VALID,12,VALID,0,
2011-07-13, 02:46:04,VALID,1002.81,VALID,0,VALID,104,VALID,0.100563,VALID,26.3887,VALID,39,VALID,0,
2011-07-13, 02:47:04,VALID,1002.79,VALID,0,VALID,104,VALID,0,VALID,26.3693,VALID,97,VALID,0,
2011-07-13, 02:48:04,VALID,1002.79,VALID,0,VALID,104,VALID,0.100563,VALID,26.3498,VALID,20,VALID,0,
2011-07-13, 02:49:04,VALID,1002.8,VALID,0,VALID,104,VALID,0,VALID,26.3713,VALID,82,VALID,0,
2011-07-13, 02:50:04,VALID,1002.78,VALID,0,VALID,104,VALID,0,VALID,26.3693,VALID,39,VALID,0,
2011-07-13, 02:51:04,VALID,1002.78,VALID,0,VALID,104,VALID,0,VALID,26.3693,VALID,18,VALID,0,
2011-07-13, 02:52:04,VALID,1002.84,VALID,0,VALID,104,VALID,0,VALID,26.3693,VALID,79,VALID,0,
2011-07-13, 02:53:04,VALID,1002.82,VALID,0,VALID,104,VALID,0,VALID,26.3713,VALID,91,VALID,0,
2011-07-13, 02:54:04,VALID,1002.86,VALID,0,VALID,104,VALID,0,VALID,26.3303,VALID,46,VALID,0,
2011-07-13, 02:55:04,VALID,1002.85,VALID,0,VALID,104,VALID,0.100563,VALID,26.3303,VALID,110,VALID,0,
2011-07-13, 02:56:04,VALID,1002.9,VALID,0,VALID,104,VALID,0,VALID,26.3088,VALID,29,VALID,0,
2011-07-13, 02:57:04,VALID,1002.91,VALID,0,VALID,104,VALID,0.100563,VALID,26.2894,VALID,96,VALID,0,
2011-07-13, 02:58:04,VALID,1002.92,VALID,0,VALID,104,VALID,0.100563,VALID,26.3303,VALID,83,VALID,0,
2011-07-13, 02:59:04,VALID,1002.98,VALID,0,VALID,104,VALID,0,VALID,26.3478,VALID,107,VALID,0,
2011-07-13, 03:00:04,VALID,1002.97,VALID,0,VALID,104,VALID,0,VALID,26.3713,VALID,112,VALID,0,
2011-07-13, 03:01:04,VALID,1002.95,VALID,0,VALID,104,VALID,0,VALID,26.3518,VALID,98,VALID,0,
2011-07-13, 03:02:04,VALID,1002.96,VALID,0,VALID,104,VALID,0,VALID,26.2913,VALID,72,VALID,0,
2011-07-13, 03:03:04,VALID,1002.93,VALID,0,VALID,104,VALID,0,VALID,26.3128,VALID,84,VALID,0,
2011-07-13, 03:04:04,VALID,1002.88,VALID,0,VALID,104,VALID,0,VALID,26.3128,VALID,75,VALID,0,
2011-07-13, 03:05:04,VALID,1002.86,VALID,0,VALID,104,VALID,0,VALID,26.2933,VALID,44,VALID,0,
2011-07-13, 03:06:04,VALID,1002.86,VALID,0,VALID,104,VALID,0,VALID,26.2719,VALID,83,VALID,0,
2011-07-13, 03:07:04,VALID,1002.79,VALID,0,VALID,104,VALID,0,VALID,26.2933,VALID,33,VALID,0,
2011-07-13, 03:08:04,VALID,1002.78,VALID,0,VALID,104,VALID,0,VALID,26.2739,VALID,74,VALID,0,
2011-07-13, 03:09:04,VALID,1002.72,VALID,0,VALID,104,VALID,0,VALID,26.2349,VALID,102,VALID,0,
2011-07-13, 03:10:04,VALID,1002.75,VALID,0,VALID,104,VALID,0,VALID,26.1959,VALID,69,VALID,0,
2011-07-13, 03:11:04,VALID,1002.74,VALID,0,VALID,104,VALID,0,VALID,26.2154,VALID,72,VALID,0,
2011-07-13, 03:12:04,VALID,1002.74,VALID,0,VALID,104,VALID,0,VALID,26.2154,VALID,37,VALID,0,
2011-07-13, 03:13:04,VALID,1002.79,VALID,0,VALID,104,VALID,0,VALID,26.2154,VALID,53,VALID,0,
2011-07-13, 03:14:04,VALID,1002.83,VALID,0,VALID,104,VALID,0,VALID,26.1959,VALID,49,VALID,0,
2011-07-13, 03:15:04,VALID,1002.85,VALID,0,VALID,104,VALID,0,VALID,26.157,VALID,86,VALID,0,
2011-07-13, 03:16:04,VALID,1002.83,VALID,0,VALID,104,VALID,0,VALID,26.1765,VALID,41,VALID,0,
2011-07-13, 03:17:04,VALID,1002.87,VALID,0,VALID,104,VALID,0,VALID,26.1375,VALID,115,VALID,0,
2011-07-13, 03:18:04,VALID,1002.87,VALID,0,VALID,104,VALID,0,VALID,26.118,VALID,291,VALID,0,
2011-07-13, 03:19:04,VALID,1002.92,VALID,0,INVALID,109.36,VALID,0,VALID,26.0791,VALID,298,VALID,0,
2011-07-13, 03:20:04,VALID,1002.89,VALID,0,INVALID,110.352,VALID,0,VALID,26.0616,VALID,105,VALID,0,
2011-07-13, 03:21:04,VALID,1002.92,VALID,0,INVALID,110.214,VALID,0,VALID,26.0206,VALID,95,VALID,0,
2011-07-13, 03:22:04,VALID,1002.91,VALID,0,INVALID,110.504,VALID,0,VALID,26.0401,VALID,98,VALID,0,
2011-07-13, 03:23:04,VALID,1002.91,VALID,0,INVALID,110.474,VALID,0,VALID,26.0421,VALID,95,VALID,0,
2011-07-13, 03:24:04,VALID,1002.94,VALID,0,INVALID,110.542,VALID,0,VALID,26.0206,VALID,106,VALID,0,
2011-07-13, 03:25:04,VALID,1002.98,VALID,0,INVALID,110.443,VALID,0,VALID,26.0206,VALID,37,VALID,0,
2011-07-13, 03:26:04,VALID,1003,VALID,0,INVALID,110.024,VALID,0,VALID,26.0401,VALID,96,VALID,0,
2011-07-13, 03:27:04,VALID,1003.02,VALID,0,VALID,104,VALID,0,VALID,26.0985,VALID,117,VALID,0,
2011-07-13, 03:28:04,VALID,1003.01,VALID,0,VALID,104,VALID,0,VALID,26.1765,VALID,105,VALID,0,
2011-07-13, 03:29:04,VALID,1003.03,VALID,0,VALID,104,VALID,0,VALID,26.2739,VALID,106,VALID,0,
2011-07-13, 03:30:04,VALID,1003.01,VALID,0,VALID,104,VALID,0,VALID,26.2913,VALID,95,VALID,0,
2011-07-13, 03:31:04,VALID,1003.01,VALID,0,VALID,104,VALID,0,VALID,26.2739,VALID,43,VALID,0,
2011-07-13, 03:32:04,VALID,1003.04,VALID,0,VALID,104,VALID,0,VALID,26.2329,VALID,60,VALID,0,
2011-07-13, 03:33:04,VALID,1003.02,VALID,0,VALID,104,VALID,0,VALID,26.2544,VALID,74,VALID,0,
2011-07-13, 03:34:04,VALID,1003.02,VALID,0,VALID,104,VALID,0,VALID,26.2134,VALID,58,VALID,0,
2011-07-13, 03:35:04,VALID,1003.05,VALID,0,VALID,104,VALID,0,VALID,26.1745,VALID,81,VALID,0,
2011-07-13, 03:36:04,VALID,1003.05,VALID,0,VALID,104,VALID,0,VALID,26.1355,VALID,31,VALID,0,
2011-07-13, 03:37:04,VALID,1003.04,VALID,0,VALID,104,VALID,0,VALID,26.0576,VALID,18,VALID,0,
2011-07-13, 03:38:04,VALID,1002.99,VALID,0,INVALID,110.71,VALID,0,VALID,25.9408,VALID,351,VALID,0,
2011-07-13, 03:39:04,VALID,1002.97,VALID,0,INVALID,115.044,VALID,0,VALID,25.8843,VALID,16,VALID,0,
2011-07-13, 03:40:04,VALID,1002.97,VALID,0,INVALID,123.351,VALID,0,VALID,25.8064,VALID,344,VALID,0,
2011-07-13, 03:41:04,VALID,1002.98,VALID,0,INVALID,129.821,VALID,0,VALID,25.7869,VALID,8,VALID,0,
2011-07-13, 03:42:04,VALID,1002.99,VALID,0,INVALID,143.118,VALID,0,VALID,25.7071,VALID,28,VALID,0,
2011-07-13, 03:43:04,VALID,1002.98,VALID,0,INVALID,153.897,VALID,0,VALID,25.6895,VALID,7,VALID,0,
2011-07-13, 03:44:04,VALID,1002.94,VALID,0,INVALID,163.548,VALID,0,VALID,25.6681,VALID,16,VALID,0,
2011-07-13, 03:45:04,VALID,1002.97,VALID,0,INVALID,163.578,VALID,0,VALID,25.6895,VALID,30,VALID,0,
2011-07-13, 03:46:04,VALID,1002.97,VALID,0,INVALID,163.609,VALID,0,VALID,25.6506,VALID,27,VALID,0,
2011-07-13, 03:47:04,VALID,1002.96,VALID,0,INVALID,163.647,VALID,0,VALID,25.5707,VALID,360,VALID,0,
2011-07-13, 03:48:04,VALID,1002.98,VALID,0,INVALID,163.639,VALID,0,VALID,25.6116,VALID,29,VALID,0,
2011-07-13, 03:49:04,VALID,1002.99,VALID,0,INVALID,163.617,VALID,0,VALID,25.6506,VALID,13,VALID,0,
2011-07-13, 03:50:04,VALID,1002.97,VALID,0,INVALID,163.609,VALID,0,VALID,25.6895,VALID,28,VALID,0,
2011-07-13, 03:51:04,VALID,1002.95,VALID,0,INVALID,163.624,VALID,0,VALID,25.6895,VALID,5,VALID,0,
2011-07-13, 03:52:04,VALID,1002.95,VALID,0,INVALID,163.571,VALID,0,VALID,25.6292,VALID,19,VALID,0,
2011-07-13, 03:53:04,VALID,1002.95,VALID,0,INVALID,163.624,VALID,0,VALID,25.6311,VALID,16,VALID,0,
2011-07-13, 03:54:04,VALID,1002.97,VALID,0,INVALID,163.639,VALID,0,VALID,25.6506,VALID,31,VALID,0,
2011-07-13, 03:55:04,VALID,1002.97,VALID,0,INVALID,163.617,VALID,0,VALID,25.6681,VALID,15,VALID,0,
2011-07-13, 03:56:04,VALID,1002.99,VALID,0,INVALID,163.594,VALID,0,VALID,25.748,VALID,357,VALID,0,
2011-07-13, 03:57:04,VALID,1003.01,VALID,0,INVALID,163.609,VALID,0,VALID,25.7674,VALID,3,VALID,0,
2011-07-13, 03:58:04,VALID,1003.07,VALID,0,INVALID,163.601,VALID,0,VALID,25.7869,VALID,2,VALID,0,
2011-07-13, 03:59:04,VALID,1003.08,VALID,0,INVALID,163.594,VALID,0,VALID,25.7869,VALID,360,VALID,0,
2011-07-13, 04:00:04,VALID,1003.12,VALID,0,INVALID,163.586,VALID,0,VALID,25.7869,VALID,353,VALID,0,
2011-07-13, 04:01:04,VALID,1003.17,VALID,0,INVALID,163.601,VALID,0,VALID,25.7869,VALID,28,VALID,0,